Year,Month,Day,Hour,Minute,Value (Times are PST for insolation in W/m^2)
2011,08,03,00,00,0.00
2011,08,03,00,01,0.00
2011,08,03,00,02,0.00
2011,08,03,00,03,0.00
2011,08,03,00,04,0.00
2011,08,03,00,05,0.00
2011,08,03,00,06,0.00
2011,08,03,00,07,0.00
2011,08,03,00,08,0.00
2011,08,03,00,09,0.00
2011,08,03,00,10,0.00
2011,08,03,00,11,0.00
2011,08,03,00,12,0.00
2011,08,03,00,13,0.00
2011,08,03,00,14,0.00
2011,08,03,00,15,0.00
2011,08,03,00,16,0.00
2011,08,03,00,17,0.00
2011,08,03,00,18,0.00
2011,08,03,00,19,0.00
2011,08,03,00,20,0.00
2011,08,03,00,21,0.00
2011,08,03,00,22,0.00
2011,08,03,00,23,0.00
2011,08,03,00,24,0.00
2011,08,03,00,25,0.00
2011,08,03,00,26,0.00
2011,08,03,00,27,0.00
2011,08,03,00,28,0.00
2011,08,03,00,29,0.00
2011,08,03,00,30,0.00
2011,08,03,00,31,0.00
2011,08,03,00,32,0.00
2011,08,03,00,33,0.00
2011,08,03,00,34,0.00
2011,08,03,00,35,0.00
2011,08,03,00,36,0.00
2011,08,03,00,37,0.00
2011,08,03,00,38,0.00
2011,08,03,00,39,0.00
2011,08,03,00,40,0.00
2011,08,03,00,41,0.00
2011,08,03,00,42,0.00
2011,08,03,00,43,0.00
2011,08,03,00,44,0.00
2011,08,03,00,45,0.00
2011,08,03,00,46,0.00
2011,08,03,00,47,0.00
2011,08,03,00,48,0.00
2011,08,03,00,49,0.00
2011,08,03,00,50,0.00
2011,08,03,00,51,0.00
2011,08,03,00,52,0.00
2011,08,03,00,53,0.00
2011,08,03,00,54,0.00
2011,08,03,00,55,0.00
2011,08,03,00,56,0.00
2011,08,03,00,57,0.00
2011,08,03,00,58,0.00
2011,08,03,00,59,0.00
2011,08,03,01,00,0.00
2011,08,03,01,01,0.00
2011,08,03,01,02,0.00
2011,08,03,01,03,0.00
2011,08,03,01,04,0.00
2011,08,03,01,05,0.00
2011,08,03,01,06,0.00
2011,08,03,01,07,0.00
2011,08,03,01,08,0.00
2011,08,03,01,09,0.00
2011,08,03,01,10,0.00
2011,08,03,01,11,0.00
2011,08,03,01,12,0.00
2011,08,03,01,13,0.00
2011,08,03,01,14,0.00
2011,08,03,01,15,0.00
2011,08,03,01,16,0.00
2011,08,03,01,17,0.00
2011,08,03,01,18,0.00
2011,08,03,01,19,0.00
2011,08,03,01,20,0.00
2011,08,03,01,21,0.00
2011,08,03,01,22,0.00
2011,08,03,01,23,0.00
2011,08,03,01,24,0.00
2011,08,03,01,25,0.00
2011,08,03,01,26,0.00
2011,08,03,01,27,0.00
2011,08,03,01,28,0.00
2011,08,03,01,29,0.00
2011,08,03,01,30,0.00
2011,08,03,01,31,0.00
2011,08,03,01,32,0.00
2011,08,03,01,33,0.00
2011,08,03,01,34,0.00
2011,08,03,01,35,0.00
2011,08,03,01,36,0.00
2011,08,03,01,37,0.00
2011,08,03,01,38,0.00
2011,08,03,01,39,0.00
2011,08,03,01,40,0.00
2011,08,03,01,41,0.00
2011,08,03,01,42,0.00
2011,08,03,01,43,0.00
2011,08,03,01,44,0.00
2011,08,03,01,45,0.00
2011,08,03,01,46,0.00
2011,08,03,01,47,0.00
2011,08,03,01,48,0.00
2011,08,03,01,49,0.00
2011,08,03,01,50,0.00
2011,08,03,01,51,0.00
2011,08,03,01,52,0.00
2011,08,03,01,53,0.00
2011,08,03,01,54,0.00
2011,08,03,01,55,0.00
2011,08,03,01,56,0.00
2011,08,03,01,57,0.00
2011,08,03,01,58,0.00
2011,08,03,01,59,0.00
2011,08,03,02,00,0.00
2011,08,03,02,01,0.00
2011,08,03,02,02,0.00
2011,08,03,02,03,0.00
2011,08,03,02,04,0.00
2011,08,03,02,05,0.00
2011,08,03,02,06,0.00
2011,08,03,02,07,0.00
2011,08,03,02,08,0.00
2011,08,03,02,09,0.00
2011,08,03,02,10,0.00
2011,08,03,02,11,0.00
2011,08,03,02,12,0.00
2011,08,03,02,13,0.00
2011,08,03,02,14,0.00
2011,08,03,02,15,0.00
2011,08,03,02,16,0.00
2011,08,03,02,17,0.00
2011,08,03,02,18,0.00
2011,08,03,02,19,0.00
2011,08,03,02,20,0.00
2011,08,03,02,21,0.00
2011,08,03,02,22,0.00
2011,08,03,02,23,0.00
2011,08,03,02,24,0.00
2011,08,03,02,25,0.00
2011,08,03,02,26,0.00
2011,08,03,02,27,0.00
2011,08,03,02,28,0.00
2011,08,03,02,29,0.00
2011,08,03,02,30,0.00
2011,08,03,02,31,0.00
2011,08,03,02,32,0.00
2011,08,03,02,33,0.00
2011,08,03,02,34,0.00
2011,08,03,02,35,0.00
2011,08,03,02,36,0.00
2011,08,03,02,37,0.00
2011,08,03,02,38,0.00
2011,08,03,02,39,0.00
2011,08,03,02,40,0.00
2011,08,03,02,41,0.00
2011,08,03,02,42,0.00
2011,08,03,02,43,0.00
2011,08,03,02,44,0.00
2011,08,03,02,45,0.00
2011,08,03,02,46,0.00
2011,08,03,02,47,0.00
2011,08,03,02,48,0.00
2011,08,03,02,49,0.00
2011,08,03,02,50,0.00
2011,08,03,02,51,0.00
2011,08,03,02,52,0.00
2011,08,03,02,53,0.00
2011,08,03,02,54,0.00
2011,08,03,02,55,0.00
2011,08,03,02,56,0.00
2011,08,03,02,57,0.00
2011,08,03,02,58,0.00
2011,08,03,02,59,0.00
2011,08,03,03,00,0.00
2011,08,03,03,01,0.00
2011,08,03,03,02,0.00
2011,08,03,03,03,0.00
2011,08,03,03,04,0.00
2011,08,03,03,05,0.00
2011,08,03,03,06,0.00
2011,08,03,03,07,0.00
2011,08,03,03,08,0.00
2011,08,03,03,09,0.00
2011,08,03,03,10,0.00
2011,08,03,03,11,0.00
2011,08,03,03,12,0.00
2011,08,03,03,13,0.00
2011,08,03,03,14,0.00
2011,08,03,03,15,0.00
2011,08,03,03,16,0.00
2011,08,03,03,17,0.00
2011,08,03,03,18,0.00
2011,08,03,03,19,0.00
2011,08,03,03,20,0.00
2011,08,03,03,21,0.00
2011,08,03,03,22,0.00
2011,08,03,03,23,0.00
2011,08,03,03,24,0.00
2011,08,03,03,25,0.00
2011,08,03,03,26,0.00
2011,08,03,03,27,0.00
2011,08,03,03,28,0.00
2011,08,03,03,29,0.00
2011,08,03,03,30,0.00
2011,08,03,03,31,0.00
2011,08,03,03,32,0.00
2011,08,03,03,33,0.00
2011,08,03,03,34,0.00
2011,08,03,03,35,0.00
2011,08,03,03,36,0.00
2011,08,03,03,37,0.00
2011,08,03,03,38,0.00
2011,08,03,03,39,0.00
2011,08,03,03,40,0.00
2011,08,03,03,41,0.00
2011,08,03,03,42,0.00
2011,08,03,03,43,0.00
2011,08,03,03,44,0.00
2011,08,03,03,45,0.00
2011,08,03,03,46,0.00
2011,08,03,03,47,0.00
2011,08,03,03,48,0.00
2011,08,03,03,49,0.00
2011,08,03,03,50,0.00
2011,08,03,03,51,0.00
2011,08,03,03,52,0.00
2011,08,03,03,53,0.00
2011,08,03,03,54,0.00
2011,08,03,03,55,0.00
2011,08,03,03,56,0.00
2011,08,03,03,57,0.00
2011,08,03,03,58,0.00
2011,08,03,03,59,0.00
2011,08,03,04,00,0.00
2011,08,03,04,01,0.00
2011,08,03,04,02,0.00
2011,08,03,04,03,0.00
2011,08,03,04,04,0.00
2011,08,03,04,05,0.00
2011,08,03,04,06,0.00
2011,08,03,04,07,0.00
2011,08,03,04,08,0.00
2011,08,03,04,09,0.00
2011,08,03,04,10,0.00
2011,08,03,04,11,0.00
2011,08,03,04,12,0.00
2011,08,03,04,13,0.00
2011,08,03,04,14,0.00
2011,08,03,04,15,0.00
2011,08,03,04,16,0.00
2011,08,03,04,17,0.00
2011,08,03,04,18,0.00
2011,08,03,04,19,0.00
2011,08,03,04,20,0.00
2011,08,03,04,21,0.00
2011,08,03,04,22,0.00
2011,08,03,04,23,0.00
2011,08,03,04,24,0.00
2011,08,03,04,25,0.00
2011,08,03,04,26,0.00
2011,08,03,04,27,0.00
2011,08,03,04,28,0.00
2011,08,03,04,29,0.00
2011,08,03,04,30,0.00
2011,08,03,04,31,0.00
2011,08,03,04,32,0.00
2011,08,03,04,33,0.00
2011,08,03,04,34,0.00
2011,08,03,04,35,0.00
2011,08,03,04,36,0.00
2011,08,03,04,37,0.00
2011,08,03,04,38,0.00
2011,08,03,04,39,0.00
2011,08,03,04,40,0.00
2011,08,03,04,41,0.00
2011,08,03,04,42,0.00
2011,08,03,04,43,0.00
2011,08,03,04,44,0.00
2011,08,03,04,45,0.00
2011,08,03,04,46,0.00
2011,08,03,04,47,0.00
2011,08,03,04,48,0.00
2011,08,03,04,49,0.00
2011,08,03,04,50,0.00
2011,08,03,04,51,0.00
2011,08,03,04,52,0.00
2011,08,03,04,53,0.00
2011,08,03,04,54,0.00
2011,08,03,04,55,0.00
2011,08,03,04,56,0.00
2011,08,03,04,57,0.00
2011,08,03,04,58,0.00
2011,08,03,04,59,0.00
2011,08,03,05,00,0.00
2011,08,03,05,01,0.00
2011,08,03,05,02,0.00
2011,08,03,05,03,0.00
2011,08,03,05,04,0.00
2011,08,03,05,05,0.00
2011,08,03,05,06,0.00
2011,08,03,05,07,0.00
2011,08,03,05,08,0.00
2011,08,03,05,09,0.00
2011,08,03,05,10,0.00
2011,08,03,05,11,0.00
2011,08,03,05,12,0.00
2011,08,03,05,13,0.00
2011,08,03,05,14,0.00
2011,08,03,05,15,0.00
2011,08,03,05,16,0.00
2011,08,03,05,17,0.00
2011,08,03,05,18,0.00
2011,08,03,05,19,0.00
2011,08,03,05,20,0.00
2011,08,03,05,21,0.00
2011,08,03,05,22,0.00
2011,08,03,05,23,0.00
2011,08,03,05,24,0.00
2011,08,03,05,25,0.00
2011,08,03,05,26,0.00
2011,08,03,05,27,0.00
2011,08,03,05,28,0.00
2011,08,03,05,29,0.00
2011,08,03,05,30,0.00
2011,08,03,05,31,0.00
2011,08,03,05,32,0.00
2011,08,03,05,33,0.00
2011,08,03,05,34,0.00
2011,08,03,05,35,0.00
2011,08,03,05,36,0.00
2011,08,03,05,37,0.00
2011,08,03,05,38,0.00
2011,08,03,05,39,0.00
2011,08,03,05,40,0.00
2011,08,03,05,41,0.00
2011,08,03,05,42,0.00
2011,08,03,05,43,0.00
2011,08,03,05,44,0.00
2011,08,03,05,45,0.00
2011,08,03,05,46,0.00
2011,08,03,05,47,0.00
2011,08,03,05,48,0.00
2011,08,03,05,49,0.00
2011,08,03,05,50,0.00
2011,08,03,05,51,0.00
2011,08,03,05,52,0.00
2011,08,03,05,53,0.00
2011,08,03,05,54,0.00
2011,08,03,05,55,0.00
2011,08,03,05,56,0.00
2011,08,03,05,57,0.00
2011,08,03,05,58,0.00
2011,08,03,05,59,0.00
2011,08,03,06,00,0.00
2011,08,03,06,01,0.20
2011,08,03,06,02,5.00
2011,08,03,06,03,5.00
2011,08,03,06,04,5.00
2011,08,03,06,05,5.00
2011,08,03,06,06,5.00
2011,08,03,06,07,5.00
2011,08,03,06,08,5.00
2011,08,03,06,09,6.10
2011,08,03,06,10,7.00
2011,08,03,06,11,7.00
2011,08,03,06,12,7.00
2011,08,03,06,13,7.00
2011,08,03,06,14,8.70
2011,08,03,06,15,9.00
2011,08,03,06,16,9.00
2011,08,03,06,17,9.20
2011,08,03,06,18,11.00
2011,08,03,06,19,11.00
2011,08,03,06,20,11.00
2011,08,03,06,21,11.00
2011,08,03,06,22,11.40
2011,08,03,06,23,12.00
2011,08,03,06,24,12.00
2011,08,03,06,25,12.00
2011,08,03,06,26,12.00
2011,08,03,06,27,12.00
2011,08,03,06,28,12.00
2011,08,03,06,29,12.00
2011,08,03,06,30,12.00
2011,08,03,06,31,12.00
2011,08,03,06,32,12.20
2011,08,03,06,33,14.00
2011,08,03,06,34,14.00
2011,08,03,06,35,14.00
2011,08,03,06,36,14.00
2011,08,03,06,37,14.00
2011,08,03,06,38,14.00
2011,08,03,06,39,14.00
2011,08,03,06,40,15.20
2011,08,03,06,41,16.00
2011,08,03,06,42,16.00
2011,08,03,06,43,16.00
2011,08,03,06,44,16.00
2011,08,03,06,45,16.00
2011,08,03,06,46,16.00
2011,08,03,06,47,16.00
2011,08,03,06,48,16.30
2011,08,03,06,49,18.00
2011,08,03,06,50,18.00
2011,08,03,06,51,18.00
2011,08,03,06,52,18.00
2011,08,03,06,53,18.00
2011,08,03,06,54,18.00
2011,08,03,06,55,18.60
2011,08,03,06,56,19.00
2011,08,03,06,57,19.00
2011,08,03,06,58,20.50
2011,08,03,06,59,22.70
2011,08,03,07,00,23.00
2011,08,03,07,01,25.00
2011,08,03,07,02,26.20
2011,08,03,07,03,28.40
2011,08,03,07,04,30.50
2011,08,03,07,05,32.20
2011,08,03,07,06,34.50
2011,08,03,07,07,37.90
2011,08,03,07,08,40.40
2011,08,03,07,09,43.00
2011,08,03,07,10,45.20
2011,08,03,07,11,46.70
2011,08,03,07,12,50.00
2011,08,03,07,13,52.60
2011,08,03,07,14,53.90
2011,08,03,07,15,55.80
2011,08,03,07,16,59.90
2011,08,03,07,17,62.00
2011,08,03,07,18,62.20
2011,08,03,07,19,63.00
2011,08,03,07,20,63.00
2011,08,03,07,21,63.70
2011,08,03,07,22,65.00
2011,08,03,07,23,66.00
2011,08,03,07,24,68.60
2011,08,03,07,25,71.20
2011,08,03,07,26,73.30
2011,08,03,07,27,75.40
2011,08,03,07,28,76.80
2011,08,03,07,29,77.00
2011,08,03,07,30,78.80
2011,08,03,07,31,81.10
2011,08,03,07,32,83.10
2011,08,03,07,33,84.00
2011,08,03,07,34,84.40
2011,08,03,07,35,86.00
2011,08,03,07,36,86.70
2011,08,03,07,37,88.80
2011,08,03,07,38,90.00
2011,08,03,07,39,90.50
2011,08,03,07,40,91.00
2011,08,03,07,41,92.30
2011,08,03,07,42,94.50
2011,08,03,07,43,96.60
2011,08,03,07,44,97.90
2011,08,03,07,45,98.00
2011,08,03,07,46,98.00
2011,08,03,07,47,98.60
2011,08,03,07,48,105.30
2011,08,03,07,49,107.50
2011,08,03,07,50,109.00
2011,08,03,07,51,109.00
2011,08,03,07,52,109.90
2011,08,03,07,53,111.00
2011,08,03,07,54,111.00
2011,08,03,07,55,111.00
2011,08,03,07,56,111.00
2011,08,03,07,57,111.00
2011,08,03,07,58,112.60
2011,08,03,07,59,113.00
2011,08,03,08,00,113.90
2011,08,03,08,01,116.20
2011,08,03,08,02,120.10
2011,08,03,08,03,121.60
2011,08,03,08,04,125.70
2011,08,03,08,05,129.10
2011,08,03,08,06,133.00
2011,08,03,08,07,135.80
2011,08,03,08,08,138.00
2011,08,03,08,09,140.00
2011,08,03,08,10,141.60
2011,08,03,08,11,143.30
2011,08,03,08,12,145.50
2011,08,03,08,13,148.40
2011,08,03,08,14,150.70
2011,08,03,08,15,154.60
2011,08,03,08,16,158.00
2011,08,03,08,17,162.30
2011,08,03,08,18,165.90
2011,08,03,08,19,171.70
2011,08,03,08,20,175.10
2011,08,03,08,21,179.10
2011,08,03,08,22,181.90
2011,08,03,08,23,184.00
2011,08,03,08,24,185.00
2011,08,03,08,25,185.00
2011,08,03,08,26,185.00
2011,08,03,08,27,185.00
2011,08,03,08,28,187.30
2011,08,03,08,29,191.40
2011,08,03,08,30,192.90
2011,08,03,08,31,195.20
2011,08,03,08,32,199.10
2011,08,03,08,33,200.30
2011,08,03,08,34,202.50
2011,08,03,08,35,204.90
2011,08,03,08,36,207.70
2011,08,03,08,37,210.60
2011,08,03,08,38,216.30
2011,08,03,08,39,224.90
2011,08,03,08,40,236.40
2011,08,03,08,41,239.70
2011,08,03,08,42,240.40
2011,08,03,08,43,241.00
2011,08,03,08,44,242.70
2011,08,03,08,45,243.00
2011,08,03,08,46,244.00
2011,08,03,08,47,242.80
2011,08,03,08,48,241.40
2011,08,03,08,49,243.80
2011,08,03,08,50,243.30
2011,08,03,08,51,242.30
2011,08,03,08,52,239.80
2011,08,03,08,53,246.70
2011,08,03,08,54,253.00
2011,08,03,08,55,243.50
2011,08,03,08,56,235.00
2011,08,03,08,57,231.10
2011,08,03,08,58,229.20
2011,08,03,08,59,227.30
2011,08,03,09,00,227.00
2011,08,03,09,01,224.90
2011,08,03,09,02,223.00
2011,08,03,09,03,223.00
2011,08,03,09,04,222.50
2011,08,03,09,05,221.60
2011,08,03,09,06,223.00
2011,08,03,09,07,223.80
2011,08,03,09,08,225.00
2011,08,03,09,09,225.00
2011,08,03,09,10,226.20
2011,08,03,09,11,227.00
2011,08,03,09,12,227.00
2011,08,03,09,13,227.00
2011,08,03,09,14,227.00
2011,08,03,09,15,228.80
2011,08,03,09,16,230.00
2011,08,03,09,17,232.00
2011,08,03,09,18,232.00
2011,08,03,09,19,232.50
2011,08,03,09,20,234.00
2011,08,03,09,21,234.00
2011,08,03,09,22,234.00
2011,08,03,09,23,234.00
2011,08,03,09,24,234.00
2011,08,03,09,25,232.80
2011,08,03,09,26,232.00
2011,08,03,09,27,230.60
2011,08,03,09,28,230.00
2011,08,03,09,29,230.00
2011,08,03,09,30,230.00
2011,08,03,09,31,231.90
2011,08,03,09,32,234.20
2011,08,03,09,33,236.20
2011,08,03,09,34,237.50
2011,08,03,09,35,239.60
2011,08,03,09,36,241.70
2011,08,03,09,37,243.40
2011,08,03,09,38,244.00
2011,08,03,09,39,246.20
2011,08,03,09,40,249.20
2011,08,03,09,41,250.70
2011,08,03,09,42,255.30
2011,08,03,09,43,259.30
2011,08,03,09,44,263.40
2011,08,03,09,45,266.70
2011,08,03,09,46,271.10
2011,08,03,09,47,274.40
2011,08,03,09,48,278.10
2011,08,03,09,49,279.50
2011,08,03,09,50,281.50
2011,08,03,09,51,284.50
2011,08,03,09,52,288.30
2011,08,03,09,53,292.00
2011,08,03,09,54,294.50
2011,08,03,09,55,297.40
2011,08,03,09,56,301.00
2011,08,03,09,57,304.90
2011,08,03,09,58,308.30
2011,08,03,09,59,314.10
2011,08,03,10,00,319.50
2011,08,03,10,01,325.20
2011,08,03,10,02,330.80
2011,08,03,10,03,339.00
2011,08,03,10,04,346.90
2011,08,03,10,05,353.60
2011,08,03,10,06,355.70
2011,08,03,10,07,359.10
2011,08,03,10,08,368.70
2011,08,03,10,09,376.00
2011,08,03,10,10,391.50
2011,08,03,10,11,387.70
2011,08,03,10,12,389.00
2011,08,03,10,13,379.00
2011,08,03,10,14,374.30
2011,08,03,10,15,371.30
2011,08,03,10,16,369.50
2011,08,03,10,17,377.10
2011,08,03,10,18,368.40
2011,08,03,10,19,367.20
2011,08,03,10,20,370.40
2011,08,03,10,21,369.00
2011,08,03,10,22,369.00
2011,08,03,10,23,370.00
2011,08,03,10,24,373.60
2011,08,03,10,25,380.10
2011,08,03,10,26,389.00
2011,08,03,10,27,399.90
2011,08,03,10,28,406.90
2011,08,03,10,29,409.70
2011,08,03,10,30,427.20
2011,08,03,10,31,417.40
2011,08,03,10,32,413.20
2011,08,03,10,33,417.00
2011,08,03,10,34,428.50
2011,08,03,10,35,428.40
2011,08,03,10,36,439.30
2011,08,03,10,37,450.40
2011,08,03,10,38,442.30
2011,08,03,10,39,436.00
2011,08,03,10,40,431.70
2011,08,03,10,41,429.00
2011,08,03,10,42,427.50
2011,08,03,10,43,428.60
2011,08,03,10,44,430.70
2011,08,03,10,45,429.20
2011,08,03,10,46,432.10
2011,08,03,10,47,434.40
2011,08,03,10,48,439.30
2011,08,03,10,49,447.90
2011,08,03,10,50,461.00
2011,08,03,10,51,465.90
2011,08,03,10,52,456.10
2011,08,03,10,53,456.90
2011,08,03,10,54,463.90
2011,08,03,10,55,468.60
2011,08,03,10,56,487.00
2011,08,03,10,57,472.70
2011,08,03,10,58,469.70
2011,08,03,10,59,462.40
2011,08,03,11,00,454.70
2011,08,03,11,01,447.90
2011,08,03,11,02,445.70
2011,08,03,11,03,442.70
2011,08,03,11,04,440.50
2011,08,03,11,05,438.70
2011,08,03,11,06,438.00
2011,08,03,11,07,438.00
2011,08,03,11,08,438.00
2011,08,03,11,09,438.50
2011,08,03,11,10,441.40
2011,08,03,11,11,446.30
2011,08,03,11,12,453.20
2011,08,03,11,13,465.80
2011,08,03,11,14,463.00
2011,08,03,11,15,461.10
2011,08,03,11,16,468.80
2011,08,03,11,17,472.30
2011,08,03,11,18,464.40
2011,08,03,11,19,457.00
2011,08,03,11,20,457.00
2011,08,03,11,21,457.70
2011,08,03,11,22,460.20
2011,08,03,11,23,463.90
2011,08,03,11,24,467.60
2011,08,03,11,25,473.10
2011,08,03,11,26,477.30
2011,08,03,11,27,481.60
2011,08,03,11,28,493.80
2011,08,03,11,29,512.40
2011,08,03,11,30,531.20
2011,08,03,11,31,542.50
2011,08,03,11,32,545.10
2011,08,03,11,33,571.20
2011,08,03,11,34,499.00
2011,08,03,11,35,493.90
2011,08,03,11,36,479.90
2011,08,03,11,37,475.60
2011,08,03,11,38,475.50
2011,08,03,11,39,478.10
2011,08,03,11,40,485.30
2011,08,03,11,41,487.70
2011,08,03,11,42,484.20
2011,08,03,11,43,480.70
2011,08,03,11,44,504.00
2011,08,03,11,45,499.80
2011,08,03,11,46,475.90
2011,08,03,11,47,473.30
2011,08,03,11,48,475.60
2011,08,03,11,49,474.60
2011,08,03,11,50,480.00
2011,08,03,11,51,482.30
2011,08,03,11,52,492.70
2011,08,03,11,53,503.40
2011,08,03,11,54,502.30
2011,08,03,11,55,500.20
2011,08,03,11,56,525.70
2011,08,03,11,57,527.80
2011,08,03,11,58,516.80
2011,08,03,11,59,530.40
2011,08,03,12,00,506.80
2011,08,03,12,01,497.30
2011,08,03,12,02,496.10
2011,08,03,12,03,497.00
2011,08,03,12,04,498.40
2011,08,03,12,05,503.90
2011,08,03,12,06,509.70
2011,08,03,12,07,519.90
2011,08,03,12,08,519.70
2011,08,03,12,09,513.90
2011,08,03,12,10,515.50
2011,08,03,12,11,527.70
2011,08,03,12,12,533.00
2011,08,03,12,13,533.80
2011,08,03,12,14,547.70
2011,08,03,12,15,558.20
2011,08,03,12,16,564.70
2011,08,03,12,17,580.60
2011,08,03,12,18,608.50
2011,08,03,12,19,629.60
2011,08,03,12,20,640.40
2011,08,03,12,21,644.50
2011,08,03,12,22,628.00
2011,08,03,12,23,624.70
2011,08,03,12,24,655.60
2011,08,03,12,25,687.00
2011,08,03,12,26,810.30
2011,08,03,12,27,872.00
2011,08,03,12,28,692.70
2011,08,03,12,29,634.00
2011,08,03,12,30,622.10
2011,08,03,12,31,657.50
2011,08,03,12,32,626.60
2011,08,03,12,33,613.00
2011,08,03,12,34,627.50
2011,08,03,12,35,693.00
2011,08,03,12,36,706.40
2011,08,03,12,37,641.50
2011,08,03,12,38,608.00
2011,08,03,12,39,624.90
2011,08,03,12,40,633.50
2011,08,03,12,41,594.70
2011,08,03,12,42,567.60
2011,08,03,12,43,563.80
2011,08,03,12,44,555.40
2011,08,03,12,45,537.70
2011,08,03,12,46,533.20
2011,08,03,12,47,538.20
2011,08,03,12,48,540.40
2011,08,03,12,49,545.20
2011,08,03,12,50,556.90
2011,08,03,12,51,568.00
2011,08,03,12,52,585.30
2011,08,03,12,53,634.20
2011,08,03,12,54,650.10
2011,08,03,12,55,614.90
2011,08,03,12,56,594.60
2011,08,03,12,57,589.00
2011,08,03,12,58,591.30
2011,08,03,12,59,627.10
2011,08,03,13,00,681.90
2011,08,03,13,01,631.60
2011,08,03,13,02,586.10
2011,08,03,13,03,578.00
2011,08,03,13,04,578.00
2011,08,03,13,05,563.30
2011,08,03,13,06,524.80
2011,08,03,13,07,514.10
2011,08,03,13,08,511.00
2011,08,03,13,09,517.50
2011,08,03,13,10,539.30
2011,08,03,13,11,572.70
2011,08,03,13,12,616.00
2011,08,03,13,13,654.70
2011,08,03,13,14,591.60
2011,08,03,13,15,577.30
2011,08,03,13,16,613.80
2011,08,03,13,17,628.30
2011,08,03,13,18,620.60
2011,08,03,13,19,622.00
2011,08,03,13,20,668.90
2011,08,03,13,21,713.00
2011,08,03,13,22,737.00
2011,08,03,13,23,737.00
2011,08,03,13,24,737.00
2011,08,03,13,25,737.00
2011,08,03,13,26,737.00
2011,08,03,13,27,737.00
2011,08,03,13,28,760.20
2011,08,03,13,29,766.00
2011,08,03,13,30,766.00
2011,08,03,13,31,809.50
2011,08,03,13,32,763.00
2011,08,03,13,33,844.00
2011,08,03,13,34,1188.00
2011,08,03,13,35,1188.00
2011,08,03,13,36,1188.00
2011,08,03,13,37,1188.00
2011,08,03,13,38,1188.00
2011,08,03,13,39,1188.00
2011,08,03,13,40,1188.00
2011,08,03,13,41,931.30
2011,08,03,13,42,803.00
2011,08,03,13,43,1033.90
2011,08,03,13,44,1106.00
2011,08,03,13,45,1106.00
2011,08,03,13,46,1057.30
2011,08,03,13,47,1066.10
2011,08,03,13,48,1171.30
2011,08,03,13,49,1164.30
2011,08,03,13,50,1155.00
2011,08,03,13,51,996.10
2011,08,03,13,52,710.10
2011,08,03,13,53,673.00
2011,08,03,13,54,673.00
2011,08,03,13,55,515.10
2011,08,03,13,56,420.70
2011,08,03,13,57,427.10
2011,08,03,13,58,437.10
2011,08,03,13,59,451.90
2011,08,03,14,00,482.00
2011,08,03,14,01,485.00
2011,08,03,14,02,485.50
2011,08,03,14,03,491.30
2011,08,03,14,04,514.20
2011,08,03,14,05,569.10
2011,08,03,14,06,608.60
2011,08,03,14,07,692.70
2011,08,03,14,08,731.00
2011,08,03,14,09,731.00
2011,08,03,14,10,669.90
2011,08,03,14,11,654.70
2011,08,03,14,12,650.70
2011,08,03,14,13,594.30
2011,08,03,14,14,647.20
2011,08,03,14,15,696.10
2011,08,03,14,16,705.30
2011,08,03,14,17,816.00
2011,08,03,14,18,759.30
2011,08,03,14,19,506.10
2011,08,03,14,20,499.00
2011,08,03,14,21,467.30
2011,08,03,14,22,486.30
2011,08,03,14,23,506.90
2011,08,03,14,24,491.50
2011,08,03,14,25,465.50
2011,08,03,14,26,454.30
2011,08,03,14,27,449.10
2011,08,03,14,28,446.50
2011,08,03,14,29,451.10
2011,08,03,14,30,473.60
2011,08,03,14,31,470.20
2011,08,03,14,32,488.00
2011,08,03,14,33,476.50
2011,08,03,14,34,471.90
2011,08,03,14,35,491.00
2011,08,03,14,36,498.00
2011,08,03,14,37,482.40
2011,08,03,14,38,483.00
2011,08,03,14,39,483.00
2011,08,03,14,40,483.00
2011,08,03,14,41,483.00
2011,08,03,14,42,483.00
2011,08,03,14,43,464.50
2011,08,03,14,44,431.60
2011,08,03,14,45,414.30
2011,08,03,14,46,404.20
2011,08,03,14,47,398.50
2011,08,03,14,48,393.70
2011,08,03,14,49,391.50
2011,08,03,14,50,390.00
2011,08,03,14,51,390.70
2011,08,03,14,52,394.10
2011,08,03,14,53,402.20
2011,08,03,14,54,452.00
2011,08,03,14,55,464.80
2011,08,03,14,56,458.00
2011,08,03,14,57,529.00
2011,08,03,14,58,483.10
2011,08,03,14,59,463.70
2011,08,03,15,00,476.70
2011,08,03,15,01,468.30
2011,08,03,15,02,473.20
2011,08,03,15,03,460.50
2011,08,03,15,04,480.80
2011,08,03,15,05,496.00
2011,08,03,15,06,496.00
2011,08,03,15,07,496.00
2011,08,03,15,08,496.00
2011,08,03,15,09,496.00
2011,08,03,15,10,496.00
2011,08,03,15,11,496.00
2011,08,03,15,12,489.90
2011,08,03,15,13,494.00
2011,08,03,15,14,513.80
2011,08,03,15,15,502.50
2011,08,03,15,16,552.20
2011,08,03,15,17,547.00
2011,08,03,15,18,578.80
2011,08,03,15,19,722.00
2011,08,03,15,20,722.00
2011,08,03,15,21,654.30
2011,08,03,15,22,511.60
2011,08,03,15,23,487.70
2011,08,03,15,24,477.70
2011,08,03,15,25,474.30
2011,08,03,15,26,459.70
2011,08,03,15,27,454.30
2011,08,03,15,28,465.60
2011,08,03,15,29,474.10
2011,08,03,15,30,442.40
2011,08,03,15,31,420.60
2011,08,03,15,32,414.80
2011,08,03,15,33,413.70
2011,08,03,15,34,417.30
2011,08,03,15,35,414.40
2011,08,03,15,36,416.00
2011,08,03,15,37,422.00
2011,08,03,15,38,422.00
2011,08,03,15,39,443.30
2011,08,03,15,40,455.40
2011,08,03,15,41,449.30
2011,08,03,15,42,448.00
2011,08,03,15,43,448.00
2011,08,03,15,44,425.90
2011,08,03,15,45,404.80
2011,08,03,15,46,385.50
2011,08,03,15,47,378.00
2011,08,03,15,48,378.00
2011,08,03,15,49,378.50
2011,08,03,15,50,378.30
2011,08,03,15,51,373.70
2011,08,03,15,52,367.00
2011,08,03,15,53,352.80
2011,08,03,15,54,342.20
2011,08,03,15,55,337.10
2011,08,03,15,56,336.00
2011,08,03,15,57,339.60
2011,08,03,15,58,346.30
2011,08,03,15,59,351.40
2011,08,03,16,00,348.40
2011,08,03,16,01,339.00
2011,08,03,16,02,328.10
2011,08,03,16,03,319.00
2011,08,03,16,04,315.20
2011,08,03,16,05,316.60
2011,08,03,16,06,319.50
2011,08,03,16,07,323.30
2011,08,03,16,08,325.00
2011,08,03,16,09,324.00
2011,08,03,16,10,322.40
2011,08,03,16,11,320.70
2011,08,03,16,12,316.40
2011,08,03,16,13,311.90
2011,08,03,16,14,308.40
2011,08,03,16,15,306.20
2011,08,03,16,16,304.00
2011,08,03,16,17,301.90
2011,08,03,16,18,301.00
2011,08,03,16,19,300.50
2011,08,03,16,20,297.90
2011,08,03,16,21,294.00
2011,08,03,16,22,290.40
2011,08,03,16,23,287.50
2011,08,03,16,24,284.90
2011,08,03,16,25,281.90
2011,08,03,16,26,279.70
2011,08,03,16,27,278.30
2011,08,03,16,28,274.90
2011,08,03,16,29,271.40
2011,08,03,16,30,267.40
2011,08,03,16,31,265.10
2011,08,03,16,32,265.00
2011,08,03,16,33,264.90
2011,08,03,16,34,263.50
2011,08,03,16,35,260.90
2011,08,03,16,36,256.20
2011,08,03,16,37,250.90
2011,08,03,16,38,245.60
2011,08,03,16,39,239.90
2011,08,03,16,40,234.00
2011,08,03,16,41,230.00
2011,08,03,16,42,227.60
2011,08,03,16,43,225.50
2011,08,03,16,44,223.30
2011,08,03,16,45,220.30
2011,08,03,16,46,213.90
2011,08,03,16,47,210.50
2011,08,03,16,48,204.90
2011,08,03,16,49,198.10
2011,08,03,16,50,190.00
2011,08,03,16,51,183.70
2011,08,03,16,52,180.20
2011,08,03,16,53,180.00
2011,08,03,16,54,183.70
2011,08,03,16,55,188.50
2011,08,03,16,56,190.00
2011,08,03,16,57,191.50
2011,08,03,16,58,192.00
2011,08,03,16,59,196.30
2011,08,03,17,00,205.10
2011,08,03,17,01,281.40
2011,08,03,17,02,318.20
2011,08,03,17,03,617.30
2011,08,03,17,04,617.00
2011,08,03,17,05,608.90
2011,08,03,17,06,605.00
2011,08,03,17,07,600.10
2011,08,03,17,08,593.60
2011,08,03,17,09,587.20
2011,08,03,17,10,580.30